| DS18B20 | SHTC3 | PZEM-004T | WiFi | ||||||||
|---|---|---|---|---|---|---|---|---|---|---|---|
| ID | Date d/m/Y & Time | data1 สูง | data2 ต่ำ | data3 นอก | temp pcb | hum pcb | Volt | Amp | Watt | rssi | Time |
| 16792 | 28/08/2026 14:38:23 | 35.9  | 33.5  | 35.6  | 36.2  | 59.4  | 229.8  | 0.04  | 4.5  | -62  | 14:38 |
| 16791 | 28/08/2026 14:33:39 | 35.9  | 33.5  | 35.4  | 36.3  | 59.5  | 229.4  | 0.04  | 4.5  | -62  | 14:33 |
| 16790 | 28/08/2026 14:28:56 | 35.9  | 33.4  | 35.3  | 36.1  | 59.4  | 229.7  | 0.04  | 4.5  | -61  | 14:28 |
| 16789 | 28/08/2026 14:24:12 | 35.9  | 33.4  | 35.4  | 36.0  | 59.4  | 229.6  | 0.04  | 4.5  | -62  | 14:24 |
| 16788 | 28/08/2026 14:19:29 | 35.8  | 33.4  | 35.5  | 36.1  | 59.4  | 227.9  | 0.04  | 4.5  | -61  | 14:19 |
| 16787 | 28/08/2026 14:14:46 | 35.8  | 33.3  | 35.4  | 36.1  | 59.3  | 229.8  | 0.04  | 4.5  | -62  | 14:14 |
| 16786 | 28/08/2026 14:10:02 | 35.8  | 33.3  | 35.4  | 36.0  | 59.2  | 229.6  | 0.04  | 4.5  | -62  | 14:10 |
| 16785 | 28/08/2026 14:05:18 | 35.8  | 33.2  | 35.3  | 35.9  | 59.3  | 227.0  | 0.04  | 4.5  | -62  | 14:05 |
| 16784 | 28/08/2026 14:00:35 | 35.7  | 33.2  | 35.5  | 35.9  | 59.1  | 227.3  | 0.04  | 4.5  | -62  | 14:00 |
| 16783 | 28/08/2026 13:55:51 | 35.7  | 33.1  | 35.4  | 35.8  | 59.4  | 229.1  | 0.04  | 4.5  | -61  | 13:55 |
| 16782 | 28/08/2026 13:51:08 | 35.6  | 33.1  | 35.4  | 35.8  | 59.4  | 229.9  | 0.04  | 4.5  | -62  | 13:51 |
| 16781 | 28/08/2026 13:46:25 | 35.6  | 33.1  | 34.9  | 35.9  | 59.5  | 228.2  | 0.04  | 4.4  | -62  | 13:46 |
| 16780 | 28/08/2026 13:41:41 | 35.7  | 33.1  | 34.5  | 35.9  | 59.3  | 228.0  | 0.04  | 4.5  | -62  | 13:41 |
| 16779 | 28/08/2026 13:36:58 | 35.7  | 33.0  | 34.8  | 35.9  | 59.3  | 229.6  | 0.04  | 4.5  | -62  | 13:36 |
| 16778 | 28/08/2026 13:32:14 | 35.6  | 33.0  | 35.1  | 35.9  | 59.5  | 230.4  | 0.04  | 4.5  | -61  | 13:32 |
| 16777 | 28/08/2026 13:27:30 | 35.6  | 32.9  | 35.6  | 36.0  | 59.6  | 230.2  | 0.04  | 4.4  | -61  | 13:27 |
| 16776 | 28/08/2026 13:22:47 | 35.5  | 32.9  | 35.3  | 35.6  | 59.5  | 230.3  | 0.04  | 4.5  | -61  | 13:22 |
| 16775 | 28/08/2026 13:18:03 | 35.4  | 32.8  | 35.2  | 35.7  | 59.6  | 230.1  | 0.04  | 4.5  | -62  | 13:18 |
| 16774 | 28/08/2026 13:13:19 | 35.4  | 32.8  | 35.0  | 35.8  | 59.5  | 229.9  | 0.04  | 4.5  | -61  | 13:13 |
| 16773 | 28/08/2026 13:08:36 | 35.4  | 32.8  | 34.7  | 35.7  | 59.5  | 229.5  | 0.04  | 4.5  | -62  | 13:08 |
| 16772 | 28/08/2026 13:03:52 | 35.4  | 32.7  | 34.7  | 35.5  | 59.7  | 229.9  | 0.04  | 4.5  | -61  | 13:03 |
| 16771 | 28/08/2026 12:59:08 | 35.3  | 32.6  | 34.8  | 35.6  | 59.8  | 230.2  | 0.04  | 4.5  | -61  | 12:59 |
| 16770 | 28/08/2026 12:54:25 | 35.2  | 32.6  | 34.6  | 35.4  | 59.7  | 230.4  | 0.04  | 4.5  | -62  | 12:54 |
| 16769 | 28/08/2026 12:49:41 | 35.2  | 32.5  | 34.9  | 35.3  | 59.7  | 231.0  | 0.04  | 4.5  | -61  | 12:49 |